| time (UTC) | temp F | wind direction | speed knots | gust knots | rain 1hr in | rain 24hr in | rain mn in | humidity % | barometer mb |
| 20260507110600 | 40 | 261 | 0.0 | 1.7 | 0.00 | 0.62 | 0.00 | 93 | 1007.7 |
| 20260507110059 | 40 | 261 | 0.9 | 1.7 | 0.00 | 0.62 | 0.00 | 94 | 1007.6 |
| 20260507105600 | 40 | 264 | 0.0 | 1.7 | 0.00 | 0.62 | 0.00 | 94 | 1007.7 |
| 20260507105056 | 40 | 0 | 0.0 | 1.7 | 0.00 | 0.62 | 0.00 | 94 | 1007.7 |
| 20260507104602 | 39 | 0 | 0.0 | 2.6 | 0.00 | 0.62 | 0.00 | 94 | 1007.8 |
| 20260507104100 | 39 | 0 | 0.0 | 2.6 | 0.00 | 0.62 | 0.00 | 94 | 1007.7 |
| 20260507103557 | 39 | 264 | 0.0 | 2.6 | 0.00 | 0.62 | 0.00 | 94 | 1007.7 |
| 20260507103056 | 39 | 0 | 0.0 | 2.6 | 0.00 | 0.62 | 0.00 | 94 | 1007.7 |
| 20260507102557 | 38 | 0 | 0.0 | 2.6 | 0.00 | 0.62 | 0.00 | 94 | 1007.8 |
| 20260507102057 | 39 | 0 | 0.0 | 2.6 | 0.00 | 0.62 | 0.00 | 93 | 1007.7 |
| 20260507101634 | 39 | 276 | 0.0 | 1.7 | 0.00 | 0.62 | 0.00 | 94 | 1007.6 |
| 20260507101059 | 38 | 0 | 0.0 | 1.7 | 0.00 | 0.62 | 0.00 | 94 | 1007.4 |
| 20260507100559 | 38 | 276 | 0.0 | 2.6 | 0.00 | 0.62 | 0.00 | 94 | 1007.5 |
| 20260507100100 | 39 | 0 | 0.0 | 2.6 | 0.00 | 0.62 | 0.00 | 94 | 1007.5 |
| 20260507095557 | 39 | 276 | 1.7 | 2.6 | 0.00 | 0.62 | 0.00 | 93 | 1007.4 |
| 20260507095100 | 39 | 276 | 0.0 | 1.7 | 0.00 | 0.62 | 0.00 | 94 | 1007.4 |
| 20260507094559 | 38 | 0 | 0.0 | 1.7 | 0.00 | 0.62 | 0.00 | 94 | 1007.5 |
| 20260507094100 | 38 | 275 | 0.0 | 1.7 | 0.00 | 0.62 | 0.00 | 93 | 1007.6 |
| 20260507093556 | 39 | 275 | 0.0 | 1.7 | 0.00 | 0.62 | 0.00 | 93 | 1007.5 |
| 20260507093059 | 38 | 0 | 0.9 | 1.7 | 0.00 | 0.62 | 0.00 | 94 | 1007.6 |
| 20260507092600 | 38 | 275 | 0.0 | 0.9 | 0.00 | 0.62 | 0.00 | 93 | 1007.7 |
| 20260507092102 | 38 | 0 | 0.0 | 0.9 | 0.00 | 0.62 | 0.00 | 93 | 1007.7 |
| 20260507091611 | 38 | 0 | 0.0 | 1.7 | 0.00 | 0.62 | 0.00 | 93 | 1007.7 |
| 20260507091057 | 38 | 0 | 0.0 | 1.7 | 0.00 | 0.62 | 0.00 | 93 | 1007.6 |
| 20260507090557 | 38 | 275 | 0.0 | 0.9 | 0.00 | 0.62 | 0.00 | 93 | 1007.7 |
| 20260507090114 | 38 | 0 | 0.0 | 0.9 | 0.00 | 0.62 | 0.00 | 93 | 1007.8 |
| 20260507085557 | 38 | 0 | 0.0 | 1.7 | 0.00 | 0.62 | 0.00 | 93 | 1007.8 |
| 20260507085058 | 38 | 0 | 0.0 | 3.5 | 0.00 | 0.62 | 0.00 | 93 | 1007.7 |
| 20260507084602 | 38 | 275 | 0.9 | 3.5 | 0.00 | 0.62 | 0.00 | 93 | 1007.7 |
| 20260507084056 | 38 | 65 | 0.9 | 3.5 | 0.00 | 0.62 | 0.00 | 93 | 1007.7 |
| 20260507083600 | 38 | 61 | 0.9 | 2.6 | 0.00 | 0.62 | 0.00 | 93 | 1007.7 |
| 20260507083111 | 38 | 61 | 0.0 | 2.6 | 0.00 | 0.62 | 0.00 | 93 | 1007.8 |
| 20260507082600 | 38 | 61 | 0.0 | 2.6 | 0.00 | 0.62 | 0.00 | 93 | 1007.8 |
| 20260507082056 | 38 | 0 | 0.0 | 2.6 | 0.00 | 0.62 | 0.00 | 93 | 1007.9 |
| 20260507081602 | 38 | 0 | 0.0 | 0.0 | 0.00 | 0.62 | 0.00 | 93 | 1007.9 |
| 20260507081059 | 38 | 0 | 0.0 | 0.9 | 0.00 | 0.62 | 0.00 | 93 | 1008.1 |
| 20260507080557 | 38 | 0 | 0.0 | 0.9 | 0.00 | 0.62 | 0.00 | 93 | 1008.0 |
| 20260507075559 | 38 | 0 | 0.0 | 1.7 | 0.00 | 0.62 | 0.00 | 93 | 1008.0 |
| 20260507075057 | 38 | 0 | 0.0 | 1.7 | 0.00 | 0.62 | 0.00 | 93 | 1007.9 |
| 20260507074601 | 38 | 61 | 0.0 | 1.7 | 0.00 | 0.62 | 0.00 | 93 | 1007.8 |
| 20260507074057 | 38 | 61 | 0.0 | 1.7 | 0.00 | 0.62 | 0.00 | 93 | 1007.8 |
| 20260507073557 | 38 | 61 | 0.0 | 1.7 | 0.00 | 0.62 | 0.00 | 93 | 1007.7 |
| 20260507073106 | 38 | 0 | 0.0 | 1.7 | 0.00 | 0.62 | 0.00 | 93 | 1007.6 |
| 20260507072557 | 37 | 61 | 0.9 | 1.7 | 0.00 | 0.62 | 0.00 | 93 | 1007.6 |
| 20260507072056 | 37 | 61 | 0.9 | 1.7 | 0.00 | 0.62 | 0.00 | 92 | 1007.6 |
| 20260507071610 | 38 | 0 | 0.0 | 1.7 | 0.00 | 0.62 | 0.00 | 92 | 1007.6 |
| 20260507071101 | 38 | 0 | 0.0 | 1.7 | 0.00 | 0.62 | 0.00 | 93 | 1007.4 |
| 20260507070557 | 38 | 61 | 0.9 | 1.7 | 0.00 | 0.62 | 0.00 | 92 | 1007.2 |
| 20260507070100 | 39 | 61 | 0.0 | 1.7 | 0.00 | 0.62 | 0.00 | 92 | 1007.3 |
| 20260507065557 | 39 | 61 | 0.9 | 1.7 | 0.00 | 0.63 | 0.00 | 93 | 1007.4 |
| 20260507065057 | 39 | 0 | 0.0 | 0.9 | 0.00 | 0.63 | 0.00 | 92 | 1007.3 |
| 20260507064616 | 39 | 0 | 0.0 | 0.9 | 0.00 | 0.63 | 0.00 | 92 | 1007.4 |
| 20260507064059 | 39 | 0 | 0.0 | 1.7 | 0.00 | 0.63 | 0.00 | 92 | 1007.4 |
| 20260507063557 | 40 | 0 | 0.0 | 2.6 | 0.00 | 0.63 | 0.00 | 92 | 1007.4 |
| 20260507063108 | 40 | 0 | 0.9 | 3.5 | 0.00 | 0.63 | 0.00 | 92 | 1007.4 |
| 20260507062557 | 40 | 61 | 0.9 | 3.5 | 0.00 | 0.63 | 0.00 | 92 | 1007.4 |
| 20260507062059 | 40 | 61 | 2.6 | 3.5 | 0.00 | 0.63 | 0.00 | 92 | 1007.3 |
| 20260507061559 | 40 | 68 | 1.7 | 2.6 | 0.00 | 0.63 | 0.00 | 92 | 1007.5 |
| 20260507061058 | 40 | 76 | 0.9 | 2.6 | 0.00 | 0.63 | 0.00 | 92 | 1007.6 |
| 20260507060601 | 40 | 77 | 0.0 | 1.7 | 0.00 | 0.63 | 0.00 | 92 | 1007.6 |
| 20260507060059 | 40 | 77 | 0.9 | 3.5 | 0.00 | 0.63 | 0.00 | 92 | 1007.7 |
| 20260507055559 | 40 | 0 | 0.0 | 3.5 | 0.00 | 0.78 | 0.00 | 92 | 1007.8 |
| 20260507055057 | 40 | 20 | 1.7 | 4.3 | 0.00 | 0.78 | 0.00 | 92 | 1007.6 |
| 20260507054607 | 40 | 40 | 1.7 | 4.3 | 0.00 | 0.78 | 0.00 | 92 | 1007.7 |
| 20260507054058 | 40 | 26 | 0.9 | 2.6 | 0.00 | 0.78 | 0.00 | 92 | 1007.8 |
| 20260507053559 | 40 | 32 | 0.9 | 2.6 | 0.00 | 0.78 | 0.00 | 92 | 1008.0 |
| 20260507053101 | 40 | 32 | 0.9 | 2.6 | 0.00 | 0.78 | 0.00 | 92 | 1007.9 |
| 20260507052559 | 40 | 32 | 0.9 | 3.5 | 0.00 | 0.78 | 0.00 | 92 | 1008.2 |
| 20260507052057 | 40 | 18 | 0.9 | 3.5 | 0.00 | 0.78 | 0.00 | 92 | 1007.9 |
| 20260507051607 | 40 | 36 | 1.7 | 3.5 | 0.00 | 0.78 | 0.00 | 92 | 1008.0 |
| 20260507051059 | 40 | 315 | 0.9 | 1.7 | 0.00 | 0.78 | 0.00 | 92 | 1008.2 |
| 20260507050559 | 40 | 315 | 0.0 | 2.6 | 0.00 | 0.78 | 0.00 | 92 | 1008.0 |
| 20260507045559 | 40 | 0 | 0.0 | 2.6 | 0.00 | 0.85 | 0.00 | 92 | 1008.0 |
| 20260507045058 | 40 | 0 | 0.0 | 3.5 | 0.00 | 0.85 | 0.00 | 92 | 1007.9 |
| 20260507044602 | 40 | 5 | 1.7 | 3.5 | 0.00 | 0.85 | 0.00 | 92 | 1007.8 |
| 20260507044059 | 40 | 11 | 1.7 | 4.3 | 0.00 | 0.85 | 0.00 | 92 | 1008.0 |
| 20260507043557 | 40 | 22 | 1.7 | 4.3 | 0.00 | 0.85 | 0.00 | 93 | 1008.0 |
| 20260507043104 | 40 | 5 | 1.7 | 4.3 | 0.00 | 0.85 | 0.00 | 93 | 1008.1 |
| 20260507042559 | 40 | 13 | 1.7 | 3.5 | 0.00 | 0.85 | 0.00 | 93 | 1008.0 |
| 20260507042059 | 40 | 17 | 1.7 | 4.3 | 0.00 | 0.85 | 0.00 | 93 | 1008.0 |
| 20260507041613 | 40 | 20 | 0.9 | 4.3 | 0.00 | 0.85 | 0.00 | 92 | 1008.1 |
| 20260507041058 | 40 | 355 | 0.9 | 2.6 | 0.00 | 0.85 | 0.00 | 93 | 1008.0 |
| 20260507040600 | 40 | 0 | 0.0 | 2.6 | 0.00 | 0.85 | 0.00 | 93 | 1008.2 |
| 20260507040100 | 40 | 355 | 0.9 | 2.6 | 0.00 | 0.85 | 0.00 | 93 | 1008.1 |
| 20260507035558 | 41 | 0 | 0.9 | 2.6 | 0.00 | 0.85 | 0.85 | 93 | 1008.0 |
| 20260507035058 | 41 | 355 | 0.9 | 3.5 | 0.00 | 0.85 | 0.85 | 93 | 1008.0 |
| 20260507034615 | 41 | 32 | 0.9 | 3.5 | 0.00 | 0.85 | 0.85 | 93 | 1008.0 |
| 20260507034057 | 41 | 20 | 1.7 | 3.5 | 0.00 | 0.85 | 0.85 | 93 | 1007.9 |
| 20260507033600 | 41 | 32 | 0.0 | 2.6 | 0.00 | 0.85 | 0.85 | 93 | 1007.9 |
| 20260507033059 | 41 | 0 | 0.0 | 2.6 | 0.00 | 0.85 | 0.85 | 93 | 1008.0 |
| 20260507032557 | 41 | 0 | 0.0 | 3.5 | 0.00 | 0.85 | 0.85 | 93 | 1008.1 |
| 20260507032058 | 41 | 9 | 1.7 | 3.5 | 0.00 | 0.85 | 0.85 | 93 | 1008.0 |
| 20260507031619 | 41 | 39 | 0.9 | 2.6 | 0.00 | 0.85 | 0.85 | 93 | 1008.1 |
| 20260507031059 | 41 | 0 | 0.0 | 1.7 | 0.00 | 0.85 | 0.85 | 93 | 1008.3 |
| 20260507030558 | 41 | 0 | 0.0 | 2.6 | 0.00 | 0.85 | 0.85 | 93 | 1008.3 |
| 20260507030104 | 41 | 0 | 0.9 | 2.6 | 0.00 | 0.85 | 0.85 | 93 | 1008.3 |
| 20260507025557 | 41 | 343 | 0.0 | 3.5 | 0.00 | 0.85 | 0.85 | 93 | 1008.4 |
| 20260507025058 | 41 | 343 | 0.0 | 3.5 | 0.00 | 0.85 | 0.85 | 93 | 1008.5 |
| 20260507024607 | 41 | 0 | 0.9 | 3.5 | 0.01 | 0.85 | 0.85 | 93 | 1008.5 |
| 20260507024059 | 41 | 312 | 0.0 | 2.6 | 0.01 | 0.85 | 0.85 | 93 | 1008.5 |
| 20260507023558 | 41 | 0 | 0.0 | 2.6 | 0.01 | 0.85 | 0.85 | 93 | 1008.5 |
| 20260507023114 | 41 | 0 | 0.0 | 3.5 | 0.02 | 0.85 | 0.85 | 93 | 1008.6 |
| 20260507022600 | 42 | 0 | 0.0 | 4.3 | 0.02 | 0.85 | 0.85 | 93 | 1008.6 |
| 20260507022059 | 42 | 0 | 0.9 | 4.3 | 0.02 | 0.85 | 0.85 | 93 | 1008.6 |
| 20260507021558 | 42 | 347 | 0.9 | 4.3 | 0.02 | 0.85 | 0.85 | 93 | 1008.7 |
| 20260507021057 | 42 | 294 | 0.9 | 4.3 | 0.03 | 0.85 | 0.85 | 93 | 1008.5 |
| 20260507020558 | 42 | 321 | 0.9 | 2.6 | 0.03 | 0.85 | 0.85 | 93 | 1008.5 |
| 20260507020101 | 42 | 308 | 0.0 | 2.6 | 0.03 | 0.85 | 0.85 | 93 | 1008.2 |
| 20260507015559 | 42 | 343 | 0.9 | 3.5 | 0.04 | 0.85 | 0.85 | 93 | 1008.0 |
| 20260507015059 | 42 | 0 | 0.9 | 3.5 | 0.04 | 0.85 | 0.85 | 93 | 1008.2 |
| 20260507014607 | 42 | 5 | 0.9 | 3.5 | 0.03 | 0.84 | 0.84 | 93 | 1008.2 |
| 20260507014059 | 42 | 321 | 0.9 | 3.5 | 0.03 | 0.84 | 0.84 | 93 | 1008.4 |
| 20260507013557 | 42 | 313 | 0.0 | 1.7 | 0.03 | 0.84 | 0.84 | 94 | 1008.4 |
| 20260507013113 | 43 | 313 | 0.0 | 1.7 | 0.02 | 0.83 | 0.83 | 94 | 1008.4 |
| 20260507012558 | 42 | 0 | 0.0 | 1.7 | 0.02 | 0.83 | 0.83 | 94 | 1008.3 |
| 20260507012059 | 42 | 0 | 0.0 | 1.7 | 0.02 | 0.83 | 0.83 | 93 | 1008.5 |
| 20260507011600 | 42 | 0 | 0.0 | 2.6 | 0.03 | 0.83 | 0.83 | 93 | 1008.5 |
| 20260507011058 | 42 | 0 | 0.0 | 2.6 | 0.02 | 0.82 | 0.82 | 93 | 1008.4 |
| 20260507010600 | 42 | 313 | 0.9 | 2.6 | 0.02 | 0.82 | 0.82 | 93 | 1008.5 |
| 20260507010058 | 42 | 0 | 0.9 | 3.5 | 0.02 | 0.82 | 0.82 | 93 | 1008.5 |
| 20260507005559 | 42 | 294 | 1.7 | 3.5 | 0.01 | 0.81 | 0.81 | 93 | 1008.5 |
| 20260507005058 | 42 | 315 | 0.0 | 1.7 | 0.01 | 0.81 | 0.81 | 93 | 1008.2 |
| 20260507004611 | 42 | 14 | 0.0 | 2.6 | 0.02 | 0.81 | 0.81 | 93 | 1008.0 |
| 20260507004057 | 42 | 14 | 0.9 | 2.6 | 0.02 | 0.81 | 0.81 | 93 | 1007.8 |
| 20260507003558 | 42 | 14 | 0.9 | 2.6 | 0.02 | 0.81 | 0.81 | 93 | 1007.9 |
| 20260507003101 | 42 | 13 | 0.9 | 2.6 | 0.02 | 0.81 | 0.81 | 93 | 1007.8 |
| 20260507002559 | 42 | 13 | 0.0 | 2.6 | 0.02 | 0.81 | 0.81 | 93 | 1007.7 |
| 20260507002100 | 43 | 13 | 0.0 | 3.5 | 0.02 | 0.81 | 0.81 | 93 | 1007.6 |
| 20260507001622 | 42 | 13 | 0.9 | 3.5 | 0.01 | 0.80 | 0.80 | 93 | 1007.6 |
| 20260507001058 | 43 | 9 | 0.0 | 1.7 | 0.02 | 0.80 | 0.80 | 93 | 1007.6 |
| 20260507000600 | 42 | 48 | 0.0 | 3.5 | 0.02 | 0.80 | 0.80 | 93 | 1007.6 |
| 20260507000101 | 42 | 32 | 0.9 | 3.5 | 0.02 | 0.80 | 0.80 | 93 | 1007.5 |
| 20260506235559 | 43 | 32 | 0.9 | 3.5 | 0.02 | 0.80 | 0.80 | 93 | 1007.3 |
| 20260506235058 | 43 | 337 | 0.9 | 5.2 | 0.02 | 0.80 | 0.80 | 93 | 1007.1 |
| 20260506234558 | 43 | 0 | 2.6 | 5.2 | 0.01 | 0.79 | 0.79 | 93 | 1007.0 |
| 20260506234059 | 43 | 28 | 0.9 | 4.3 | 0.01 | 0.79 | 0.79 | 93 | 1006.8 |
| 20260506233559 | 43 | 0 | 0.9 | 4.3 | 0.01 | 0.79 | 0.79 | 93 | 1007.0 |
| 20260506233102 | 43 | 350 | 1.7 | 7.0 | 0.01 | 0.79 | 0.79 | 93 | 1006.9 |
| 20260506232558 | 43 | 5 | 2.6 | 7.0 | 0.01 | 0.79 | 0.79 | 93 | 1006.6 |
| 20260506232058 | 43 | 349 | 3.5 | 7.0 | 0.01 | 0.79 | 0.79 | 93 | 1006.6 |
| 20260506231557 | 43 | 5 | 2.6 | 7.0 | 0.01 | 0.79 | 0.79 | 93 | 1006.6 |
| 20260506231058 | 43 | 38 | 2.6 | 7.0 | 0.00 | 0.78 | 0.78 | 93 | 1006.5 |
| 20260506230557 | 43 | 23 | 0.9 | 7.0 | 0.00 | 0.78 | 0.78 | 93 | 1006.6 |
| 20260506230059 | 43 | 5 | 1.7 | 7.8 | 0.00 | 0.78 | 0.78 | 93 | 1006.6 |
| 20260506225604 | 43 | 29 | 3.5 | 9.6 | 0.00 | 0.78 | 0.78 | 93 | 1006.4 |
| 20260506225059 | 43 | 34 | 3.5 | 9.6 | 0.00 | 0.78 | 0.78 | 93 | 1006.5 |
| 20260506224556 | 43 | 24 | 2.6 | 8.7 | 0.00 | 0.78 | 0.78 | 93 | 1006.5 |
| 20260506224057 | 44 | 20 | 1.7 | 7.0 | 0.00 | 0.78 | 0.78 | 93 | 1006.4 |
| 20260506223558 | 44 | 313 | 2.6 | 8.7 | 0.00 | 0.78 | 0.78 | 93 | 1006.3 |
| 20260506223118 | 44 | 5 | 3.5 | 8.7 | 0.00 | 0.78 | 0.78 | 93 | 1006.1 |
| 20260506222557 | 44 | 28 | 3.5 | 8.7 | 0.00 | 0.78 | 0.78 | 93 | 1006.0 |
| 20260506222101 | 44 | 355 | 3.5 | 7.8 | 0.00 | 0.78 | 0.78 | 93 | 1006.0 |
| 20260506221604 | 44 | 360 | 2.6 | 8.7 | 0.00 | 0.78 | 0.78 | 93 | 1005.9 |
| 20260506221058 | 44 | 344 | 2.6 | 8.7 | 0.00 | 0.78 | 0.78 | 93 | 1005.8 |
| 20260506220557 | 44 | 355 | 3.5 | 10.4 | 0.00 | 0.78 | 0.78 | 93 | 1005.9 |
| 20260506220058 | 44 | 24 | 4.3 | 10.4 | 0.00 | 0.78 | 0.78 | 93 | 1006.0 |
| 20260506215556 | 44 | 344 | 2.6 | 8.7 | 0.00 | 0.78 | 0.78 | 93 | 1005.9 |
| 20260506215057 | 44 | 31 | 2.6 | 7.0 | 0.00 | 0.78 | 0.78 | 94 | 1005.8 |
| 20260506214609 | 44 | 5 | 3.5 | 7.0 | 0.00 | 0.78 | 0.78 | 94 | 1005.7 |
| 20260506214103 | 44 | 346 | 2.6 | 7.0 | 0.00 | 0.78 | 0.78 | 94 | 1005.8 |
| 20260506213600 | 44 | 33 | 3.5 | 7.0 | 0.00 | 0.78 | 0.78 | 93 | 1005.8 |
| 20260506213059 | 45 | 329 | 1.7 | 7.0 | 0.01 | 0.78 | 0.78 | 93 | 1005.8 |
| 20260506212558 | 44 | 352 | 3.5 | 7.0 | 0.02 | 0.78 | 0.78 | 94 | 1005.8 |
| 20260506212059 | 44 | 20 | 2.6 | 7.8 | 0.04 | 0.78 | 0.78 | 94 | 1005.8 |
| 20260506211557 | 45 | 5 | 1.7 | 7.8 | 0.04 | 0.78 | 0.78 | 94 | 1005.8 |
| 20260506211058 | 45 | 24 | 2.6 | 7.8 | 0.04 | 0.78 | 0.78 | 93 | 1005.8 |
| 20260506210558 | 45 | 360 | 3.5 | 7.8 | 0.06 | 0.78 | 0.78 | 93 | 1005.7 |
| 20260506210128 | 45 | 355 | 2.6 | 7.8 | 0.06 | 0.78 | 0.78 | 93 | 1005.7 |
| 20260506205557 | 45 | 5 | 3.5 | 8.7 | 0.07 | 0.82 | 0.78 | 93 | 1005.7 |
| 20260506205057 | 45 | 5 | 4.3 | 8.7 | 0.08 | 0.82 | 0.78 | 94 | 1005.6 |
| 20260506204557 | 45 | 355 | 3.5 | 8.7 | 0.08 | 0.82 | 0.78 | 93 | 1005.6 |
| 20260506204056 | 45 | 65 | 3.5 | 9.6 | 0.09 | 0.82 | 0.78 | 93 | 1005.7 |
| 20260506203557 | 45 | 42 | 4.3 | 9.6 | 0.10 | 0.82 | 0.78 | 94 | 1005.6 |
| 20260506203102 | 45 | 30 | 2.6 | 7.0 | 0.09 | 0.81 | 0.77 | 94 | 1005.8 |
| 20260506202558 | 45 | 30 | 2.6 | 9.6 | 0.09 | 0.80 | 0.76 | 93 | 1005.8 |
| 20260506202058 | 45 | 38 | 3.5 | 9.6 | 0.07 | 0.78 | 0.74 | 93 | 1005.7 |
| 20260506201557 | 45 | 5 | 3.5 | 9.6 | 0.07 | 0.78 | 0.74 | 93 | 1005.7 |
| 20260506201058 | 45 | 355 | 3.5 | 7.8 | 0.07 | 0.78 | 0.74 | 93 | 1005.6 |
| 20260506200557 | 45 | 31 | 2.6 | 6.1 | 0.06 | 0.76 | 0.72 | 94 | 1005.6 |
| 20260506200146 | 45 | 288 | 1.7 | 7.0 | 0.06 | 0.76 | 0.72 | 94 | 1005.7 |
| 20260506195557 | 45 | 5 | 2.6 | 7.8 | 0.05 | 0.75 | 0.71 | 93 | 1005.8 |
| 20260506195057 | 45 | 342 | 2.6 | 8.7 | 0.04 | 0.74 | 0.70 | 94 | 1005.6 |
| 20260506194607 | 45 | 43 | 2.6 | 8.7 | 0.04 | 0.74 | 0.70 | 93 | 1005.6 |
| 20260506194058 | 45 | 360 | 4.3 | 7.8 | 0.04 | 0.73 | 0.69 | 93 | 1005.5 |
| 20260506193558 | 46 | 27 | 2.6 | 7.8 | 0.03 | 0.72 | 0.68 | 93 | 1005.5 |
| 20260506193057 | 46 | 360 | 3.5 | 7.8 | 0.03 | 0.72 | 0.68 | 93 | 1005.6 |
| 20260506192557 | 46 | 35 | 3.5 | 7.8 | 0.02 | 0.71 | 0.67 | 93 | 1005.7 |
| 20260506192057 | 46 | 10 | 1.7 | 8.7 | 0.02 | 0.71 | 0.67 | 94 | 1005.7 |
| 20260506191555 | 46 | 22 | 4.3 | 8.7 | 0.02 | 0.71 | 0.67 | 94 | 1005.6 |
| 20260506191058 | 46 | 30 | 3.5 | 9.6 | 0.02 | 0.71 | 0.67 | 93 | 1005.6 |
| 20260506190558 | 46 | 18 | 2.6 | 9.6 | 0.01 | 0.70 | 0.66 | 93 | 1005.8 |
| 20260506190057 | 46 | 34 | 3.5 | 9.6 | 0.02 | 0.70 | 0.66 | 93 | 1005.7 |
| 20260506185557 | 46 | 55 | 2.6 | 7.8 | 0.02 | 0.70 | 0.66 | 93 | 1005.7 |
| 20260506185058 | 47 | 71 | 3.5 | 8.7 | 0.03 | 0.70 | 0.66 | 93 | 1005.6 |
| 20260506184601 | 47 | 17 | 2.6 | 8.7 | 0.04 | 0.70 | 0.66 | 93 | 1005.5 |
| 20260506184057 | 47 | 57 | 4.3 | 7.0 | 0.04 | 0.69 | 0.65 | 93 | 1005.5 |
| 20260506183558 | 48 | 327 | 0.9 | 5.2 | 0.05 | 0.69 | 0.65 | 93 | 1005.7 |
| 20260506183102 | 49 | 10 | 2.6 | 6.1 | 0.06 | 0.69 | 0.65 | 93 | 1005.6 |
| 20260506182557 | 49 | 5 | 3.5 | 7.8 | 0.07 | 0.69 | 0.65 | 93 | 1005.6 |
| 20260506182100 | 50 | 68 | 2.6 | 7.8 | 0.08 | 0.69 | 0.65 | 93 | 1005.4 |
| 20260506181555 | 50 | 36 | 4.3 | 7.8 | 0.08 | 0.69 | 0.65 | 93 | 1005.6 |
| 20260506181058 | 51 | 67 | 3.5 | 7.8 | 0.08 | 0.69 | 0.65 | 93 | 1005.6 |
| 20260506180602 | 52 | 21 | 2.6 | 5.2 | 0.08 | 0.69 | 0.65 | 94 | 1005.8 |
| 20260506180105 | 52 | 64 | 2.6 | 7.8 | 0.08 | 0.68 | 0.64 | 93 | 1005.9 |
| 20260506175558 | 52 | 360 | 0.9 | 7.8 | 0.09 | 0.68 | 0.64 | 93 | 1006.0 |
| 20260506175100 | 53 | 34 | 0.9 | 7.8 | 0.09 | 0.67 | 0.63 | 93 | 1006.1 |
| 20260506174601 | 55 | 301 | 0.9 | 3.5 | 0.08 | 0.66 | 0.62 | 94 | 1006.1 |
| 20260506174058 | 55 | 259 | 1.7 | 3.5 | 0.08 | 0.65 | 0.61 | 94 | 1006.1 |
| 20260506173559 | 55 | 0 | 0.0 | 3.5 | 0.08 | 0.64 | 0.60 | 94 | 1006.2 |
| 20260506173122 | 55 | 138 | 0.0 | 2.6 | 0.08 | 0.63 | 0.58 | 94 | 1006.1 |
| 20260506172600 | 55 | 0 | 0.0 | 2.6 | 0.08 | 0.62 | 0.58 | 94 | 1006.1 |
| 20260506172057 | 55 | 88 | 0.0 | 3.5 | 0.08 | 0.61 | 0.57 | 94 | 1006.1 |
| 20260506171602 | 55 | 267 | 0.9 | 3.5 | 0.09 | 0.61 | 0.57 | 94 | 1006.2 |
| 20260506171056 | 55 | 103 | 0.0 | 4.3 | 0.10 | 0.61 | 0.57 | 94 | 1006.2 |
| 20260506170559 | 55 | 0 | 0.0 | 4.3 | 0.10 | 0.61 | 0.57 | 94 | 1006.4 |
| 20260506170058 | 55 | 221 | 0.9 | 2.6 | 0.10 | 0.60 | 0.56 | 94 | 1006.3 |
| 20260506165558 | 54 | 270 | 0.0 | 4.3 | 0.09 | 0.58 | 0.55 | 94 | 1006.4 |
| 20260506165056 | 55 | 180 | 0.0 | 4.3 | 0.08 | 0.58 | 0.54 | 94 | 1006.3 |
| 20260506164559 | 55 | 0 | 0.0 | 2.6 | 0.09 | 0.58 | 0.54 | 94 | 1006.3 |
| 20260506164058 | 55 | 60 | 0.0 | 2.6 | 0.08 | 0.57 | 0.52 | 94 | 1006.3 |
| 20260506163557 | 55 | 0 | 0.0 | 1.7 | 0.08 | 0.56 | 0.52 | 94 | 1006.3 |
| 20260506163103 | 55 | 0 | 0.0 | 1.7 | 0.08 | 0.55 | 0.51 | 94 | 1006.4 |
| 20260506162558 | 54 | 0 | 0.0 | 1.7 | 0.08 | 0.54 | 0.50 | 94 | 1006.5 |
| 20260506162055 | 54 | 0 | 0.0 | 3.5 | 0.07 | 0.52 | 0.49 | 94 | 1006.5 |
| 20260506161559 | 54 | 0 | 0.0 | 7.0 | 0.07 | 0.52 | 0.48 | 94 | 1006.6 |
| 20260506161058 | 54 | 198 | 0.9 | 7.0 | 0.06 | 0.51 | 0.47 | 94 | 1006.7 |
| 20260506160556 | 54 | 216 | 0.9 | 7.0 | 0.07 | 0.51 | 0.47 | 94 | 1006.8 |
| 20260506160108 | 54 | 154 | 0.9 | 5.2 | 0.07 | 0.50 | 0.46 | 94 | 1006.8 |
| 20260506155558 | 54 | 0 | 0.0 | 2.6 | 0.08 | 0.50 | 0.46 | 94 | 1006.9 |
| 20260506155056 | 54 | 0 | 0.0 | 3.5 | 0.09 | 0.50 | 0.46 | 94 | 1006.9 |
| 20260506154600 | 54 | 0 | 0.0 | 3.5 | 0.09 | 0.49 | 0.45 | 94 | 1007.0 |
| 20260506154056 | 54 | 214 | 1.7 | 4.3 | 0.09 | 0.49 | 0.45 | 94 | 1007.1 |
| 20260506153555 | 53 | 0 | 0.0 | 4.3 | 0.08 | 0.48 | 0.44 | 94 | 1007.1 |
| 20260506153058 | 53 | 220 | 0.0 | 2.6 | 0.08 | 0.47 | 0.43 | 94 | 1007.1 |
| 20260506152556 | 54 | 236 | 0.0 | 2.6 | 0.07 | 0.46 | 0.42 | 94 | 1007.1 |
| 20260506152059 | 53 | 238 | 0.0 | 2.6 | 0.07 | 0.46 | 0.42 | 94 | 1007.1 |
| 20260506151556 | 53 | 0 | 0.0 | 1.7 | 0.07 | 0.45 | 0.41 | 94 | 1007.1 |
| 20260506151058 | 53 | 81 | 0.0 | 3.5 | 0.07 | 0.45 | 0.41 | 94 | 1007.3 |
| 20260506150557 | 53 | 0 | 0.0 | 3.5 | 0.07 | 0.44 | 0.40 | 94 | 1007.4 |
| 20260506145602 | 53 | 211 | 0.0 | 1.7 | 0.07 | 0.42 | 0.38 | 94 | 1007.5 |
| 20260506145058 | 53 | 234 | 0.0 | 1.7 | 0.06 | 0.41 | 0.37 | 94 | 1007.5 |
| 20260506144557 | 52 | 0 | 0.0 | 2.6 | 0.06 | 0.40 | 0.36 | 93 | 1007.5 |
| 20260506144056 | 52 | 0 | 0.0 | 2.6 | 0.06 | 0.40 | 0.36 | 93 | 1007.6 |
| 20260506143556 | 52 | 234 | 0.0 | 2.6 | 0.07 | 0.40 | 0.36 | 94 | 1007.7 |
| 20260506143058 | 52 | 234 | 0.0 | 3.5 | 0.06 | 0.39 | 0.35 | 93 | 1007.6 |
| 20260506142555 | 52 | 234 | 1.7 | 3.5 | 0.06 | 0.39 | 0.35 | 93 | 1007.6 |
| 20260506142057 | 52 | 244 | 0.0 | 0.0 | 0.07 | 0.39 | 0.35 | 93 | 1007.6 |
| 20260506141556 | 52 | 0 | 0.0 | 0.0 | 0.06 | 0.38 | 0.34 | 93 | 1007.7 |
| 20260506141058 | 52 | 0 | 0.0 | 0.0 | 0.07 | 0.38 | 0.34 | 94 | 1007.6 |
| 20260506140600 | 52 | 0 | 0.0 | 0.0 | 0.06 | 0.37 | 0.33 | 93 | 1007.7 |
| 20260506140059 | 52 | 0 | 0.0 | 0.0 | 0.06 | 0.36 | 0.32 | 94 | 1007.7 |
| 20260506135557 | 52 | 0 | 0.0 | 0.0 | 0.05 | 0.35 | 0.31 | 93 | 1007.8 |
| 20260506135057 | 52 | 0 | 0.0 | 0.0 | 0.06 | 0.35 | 0.31 | 93 | 1007.8 |
| 20260506134620 | 51 | 0 | 0.0 | 0.0 | 0.06 | 0.34 | 0.30 | 93 | 1007.9 |
| 20260506134100 | 51 | 0 | 0.0 | 0.0 | 0.06 | 0.34 | 0.30 | 93 | 1007.9 |
| 20260506133556 | 51 | 0 | 0.0 | 0.0 | 0.05 | 0.33 | 0.29 | 93 | 1008.0 |
| 20260506133058 | 51 | 0 | 0.0 | 0.0 | 0.05 | 0.33 | 0.29 | 93 | 1008.0 |
| 20260506132556 | 52 | 0 | 0.0 | 0.0 | 0.05 | 0.33 | 0.29 | 93 | 1007.9 |
| 20260506132056 | 52 | 0 | 0.0 | 2.6 | 0.04 | 0.32 | 0.28 | 93 | 1007.9 |
| 20260506131609 | 51 | 0 | 0.0 | 2.6 | 0.04 | 0.32 | 0.28 | 93 | 1007.8 |
| 20260506131056 | 51 | 360 | 0.0 | 3.5 | 0.04 | 0.31 | 0.27 | 93 | 1008.0 |
| 20260506130556 | 51 | 9 | 0.9 | 3.5 | 0.04 | 0.31 | 0.27 | 93 | 1008.0 |
| 20260506130058 | 51 | 40 | 0.9 | 3.5 | 0.03 | 0.30 | 0.26 | 93 | 1008.0 |
| 20260506125555 | 51 | 321 | 0.9 | 2.6 | 0.03 | 0.30 | 0.26 | 93 | 1008.4 |
| 20260506125055 | 51 | 5 | 0.0 | 1.7 | 0.02 | 0.29 | 0.25 | 93 | 1008.4 |
| 20260506124558 | 51 | 0 | 0.0 | 2.6 | 0.01 | 0.28 | 0.24 | 93 | 1008.3 |
| 20260506124058 | 51 | 5 | 0.9 | 2.6 | 0.01 | 0.28 | 0.24 | 93 | 1008.3 |
| 20260506123558 | 51 | 311 | 0.0 | 2.6 | 0.01 | 0.28 | 0.24 | 93 | 1008.5 |
| 20260506123057 | 51 | 0 | 0.9 | 3.5 | 0.01 | 0.28 | 0.24 | 93 | 1008.4 |
| 20260506122556 | 51 | 0 | 0.9 | 3.5 | 0.01 | 0.28 | 0.24 | 93 | 1008.3 |
| 20260506122057 | 51 | 0 | 1.7 | 8.7 | 0.01 | 0.28 | 0.24 | 93 | 1008.2 |
| 20260506121605 | 51 | 222 | 5.2 | 8.7 | 0.01 | 0.28 | 0.24 | 93 | 1008.4 |
| 20260506121056 | 51 | 69 | 3.5 | 7.0 | 0.00 | 0.27 | 0.23 | 93 | 1007.7 |
| 20260506120556 | 51 | 350 | 0.0 | 5.2 | 0.00 | 0.27 | 0.23 | 93 | 1008.6 |
| 20260506115558 | 51 | 293 | 0.9 | 3.5 | 0.00 | 0.27 | 0.23 | 93 | 1008.6 |
| 20260506115055 | 51 | 69 | 0.9 | 3.5 | 0.00 | 0.27 | 0.23 | 93 | 1008.5 |
| 20260506114557 | 51 | 0 | 0.9 | 3.5 | 0.00 | 0.27 | 0.23 | 93 | 1008.8 |
| 20260506114059 | 51 | 42 | 0.0 | 4.3 | 0.00 | 0.27 | 0.23 | 93 | 1008.6 |
| 20260506113602 | 51 | 344 | 1.7 | 4.3 | 0.00 | 0.27 | 0.23 | 93 | 1008.5 |
| 20260506113101 | 51 | 20 | 1.7 | 4.3 | 0.00 | 0.27 | 0.23 | 93 | 1008.3 |
| 20260506112600 | 51 | 355 | 0.0 | 1.7 | 0.00 | 0.27 | 0.23 | 93 | 1008.4 |
| 20260506112100 | 51 | 0 | 0.0 | 1.7 | 0.00 | 0.27 | 0.23 | 93 | 1008.5 |
| 20260506111622 | 51 | 82 | 0.0 | 0.0 | 0.00 | 0.27 | 0.23 | 93 | 1008.4 |
| 20260506111058 | 51 | 0 | 0.0 | 0.0 | 0.00 | 0.27 | 0.23 | 93 | 1008.5 |